Location: La Tine
(46.4708°N, 7.0525°E)
Time: 23:28:57
(UTC+00:00)

Cosmos 1833 Rocket - Pass Details

Date: 18 January 2021
Orbit: 833 x 839 km, 71.0° (Epoch: 03 March)

Event Time Altitude Azimuth Distance (km) Brightness Sun altitude
Rises 18:21:23 0° 340° (NNW) 3,391 6.0 -21.2°
Reaches altitude 10° 18:24:26 10° 356° (N) 2,454 5.1 -21.7°
Enters shadow 18:26:50 18° 19° (NNE) 1,925 4.3 -22.1°
